Hourly Data Report for October 21, 2014

All times are specified in Local Standard Time (LST). Add 1 hour to adjust for Daylight Saving Time where and when it is observed.

KITCHENER/WATERLOO
ONTARIO

43°27'39.000" N
80°22'43.000" W
321.60 m
6144239
71368
YKF

Download Data

Hourly Data (October 2014)
Hourly Data Report for October 21, 2014
Temp Definition
°C
Dew Point Temp Definition
°C
Rel Hum Definition
%
Wind Dir Definition
10's deg

Wind Spd Definition
km/h
Visibility Definition
km
Stn Press Definition
kPa
Hmdx Definition


Wind Chill Definition


Weather Definition


TIME
00:00 Legend Double Dagger 9.5 8.4 93 30 8 6.4 97.11     Fog
01:00 Legend Double Dagger 9.1 7.9 92 30 13 9.7 97.08     Fog
02:00 Legend Double Dagger 9.1 7.7 91 30 13 16.1 97.09     LegendNANA
03:00 Legend Double Dagger 8.9 8.0 94 29 13 8.1 97.09     Fog
04:00 Legend Double Dagger 8.8 7.7 93 28 13 9.7 97.09     Rain,Fog
05:00 Legend Double Dagger 8.4 7.5 94 30 15 11.3 97.11     Rain
06:00 Legend Double Dagger 8.0 6.9 93 33 17 16.1 97.15     Rain
07:00 Legend Double Dagger 7.7 6.8 94 31 13 9.7 97.23     Moderate Rain,Fog
08:00 Legend Double Dagger 7.7 6.8 94 32 15 16.1 97.30     Rain
09:00 Legend Double Dagger 7.6 6.7 94 31 13 12.9 97.35     Moderate Rain
10:00 Legend Double Dagger 7.8 6.9 94 32 15 4.8 97.39     Rain,Fog
11:00 Legend Double Dagger 8.4 7.5 94 34 17 9.7 97.44     Fog
12:00 Legend Double Dagger 7.7 6.3 91 35 18 16.1 97.50     LegendNANA
13:00 Legend Double Dagger 7.5 6.0 90 36 21 16.1 97.55     LegendNANA
14:00 Legend Double Dagger 7.5 5.3 86 1 17 16.1 97.61     LegendNANA
15:00 Legend Double Dagger 7.0 5.2 88 1 17 16.1 97.69     LegendNANA
16:00 Legend Double Dagger 6.6 4.6 87 1 21 16.1 97.80     LegendNANA
17:00 Legend Double Dagger 6.0 4.5 90 36 18 16.1 97.89     LegendNANA
18:00 Legend Double Dagger 5.8 4.5 91 1 15 16.1 97.99     LegendNANA
19:00 Legend Double Dagger 5.9 4.4 90 2 18 16.1 98.05     LegendNANA
20:00 Legend Double Dagger 5.6 3.9 89 2 18 16.1 98.14     Rain
21:00 Legend Double Dagger 5.2 3.9 91 2 21 12.9 98.23     Rain
22:00 Legend Double Dagger 5.1 3.8 91 2 21 16.1 98.29     LegendNANA
23:00 Legend Double Dagger 5.1 3.3 88 3 15 16.1 98.32     LegendNANA

Notes on Data Quality.

Legend

  • E = Estimated
  • M = Missing
  • NA = Not Available
  • ‡ = Partner data that is not subject to review by the National Climate Archives
Date modified: